Time,TemperatureF,DewpointF,PressureIn,WindDirection,WindDirectionDegrees,WindSpeedMPH,WindSpeedGustMPH,Humidity,HourlyPrecipIn,Conditions,Clouds,dailyrainin,SoftwareType,DateUTC
2013-05-01 00:02:00,51.5,36.0,30.33,ENE,68,0.0,3.0,55,0.00,,,0.00,weatherlink.com 1.10,2013-05-01 04:02:00,
2013-05-01 00:18:00,52.0,35.0,30.33,East,84,1.0,3.0,52,0.00,,,0.00,weatherlink.com 1.10,2013-05-01 04:18:00,
2013-05-01 00:33:00,50.6,35.0,30.33,East,96,0.0,1.0,56,0.00,,,0.00,weatherlink.com 1.10,2013-05-01 04:33:00,
2013-05-01 00:48:00,48.8,36.0,30.34,East,96,0.0,0.0,62,0.00,,,0.00,weatherlink.com 1.10,2013-05-01 04:48:00,
2013-05-01 01:03:00,47.7,36.0,30.34,East,96,0.0,0.0,65,0.00,,,0.00,weatherlink.com 1.10,2013-05-01 05:03:00,
2013-05-01 01:18:00,48.5,35.0,30.34,East,96,0.0,1.0,60,0.00,,,0.00,weatherlink.com 1.10,2013-05-01 05:18:00,
2013-05-01 01:33:00,49.7,34.0,30.34,East,88,1.0,2.0,55,0.00,,,0.00,weatherlink.com 1.10,2013-05-01 05:33:00,
2013-05-01 01:48:00,49.4,34.0,30.34,ENE,74,0.0,2.0,55,0.00,,,0.00,weatherlink.com 1.10,2013-05-01 05:48:00,
2013-05-01 02:03:00,47.9,34.0,30.34,ENE,74,0.0,0.0,60,0.00,,,0.00,weatherlink.com 1.10,2013-05-01 06:03:00,
2013-05-01 02:18:00,46.6,34.0,30.35,ENE,74,0.0,0.0,63,0.00,,,0.00,weatherlink.com 1.10,2013-05-01 06:18:00,
2013-05-01 02:33:00,48.6,35.0,30.34,ENE,61,1.0,3.0,59,0.00,,,0.00,weatherlink.com 1.10,2013-05-01 06:33:00,
2013-05-01 02:48:00,48.3,34.0,30.34,ENE,78,0.0,2.0,59,0.00,,,0.00,weatherlink.com 1.10,2013-05-01 06:48:00,
2013-05-01 03:03:00,48.1,34.0,30.34,ENE,77,0.0,2.0,59,0.00,,,0.00,weatherlink.com 1.10,2013-05-01 07:03:00,
2013-05-01 03:18:00,48.0,34.0,30.35,ENE,73,0.0,2.0,59,0.00,,,0.00,weatherlink.com 1.10,2013-05-01 07:18:00,
2013-05-01 03:33:00,47.6,35.0,30.35,ENE,73,0.0,3.0,61,0.00,,,0.00,weatherlink.com 1.10,2013-05-01 07:33:00,
2013-05-01 03:48:00,47.5,34.0,30.35,East,82,0.0,3.0,61,0.00,,,0.00,weatherlink.com 1.10,2013-05-01 07:48:00,
2013-05-01 04:03:00,47.2,34.0,30.35,ENE,72,1.0,3.0,60,0.00,,,0.00,weatherlink.com 1.10,2013-05-01 08:03:00,
2013-05-01 04:18:00,47.0,34.0,30.35,East,90,0.0,5.0,60,0.00,,,0.00,weatherlink.com 1.10,2013-05-01 08:18:00,
2013-05-01 04:33:00,47.0,33.0,30.36,ENE,65,2.0,4.0,59,0.00,,,0.00,weatherlink.com 1.10,2013-05-01 08:33:00,
2013-05-01 04:48:00,46.4,33.0,30.35,ENE,58,2.0,4.0,61,0.00,,,0.00,weatherlink.com 1.10,2013-05-01 08:48:00,
2013-05-01 05:03:00,46.0,33.0,30.35,ENE,64,0.0,4.0,61,0.00,,,0.00,weatherlink.com 1.10,2013-05-01 09:03:00,
2013-05-01 05:18:00,45.9,33.0,30.36,ENE,75,0.0,3.0,61,0.00,,,0.00,weatherlink.com 1.10,2013-05-01 09:18:00,
2013-05-01 05:33:00,45.7,32.0,30.37,ENE,77,2.0,3.0,60,0.00,,,0.00,weatherlink.com 1.10,2013-05-01 09:33:00,
2013-05-01 05:48:00,45.4,32.0,30.37,ENE,59,1.0,3.0,60,0.00,,,0.00,weatherlink.com 1.10,2013-05-01 09:48:00,
2013-05-01 06:03:00,45.3,32.0,30.38,ENE,63,1.0,4.0,60,0.00,,,0.00,weatherlink.com 1.10,2013-05-01 10:03:00,
2013-05-01 06:18:00,45.3,32.0,30.38,East,83,1.0,3.0,59,0.00,,,0.00,weatherlink.com 1.10,2013-05-01 10:18:00,
2013-05-01 06:33:00,45.1,32.0,30.39,ENE,71,0.0,3.0,60,0.00,,,0.00,weatherlink.com 1.10,2013-05-01 10:33:00,
2013-05-01 06:48:00,45.6,32.0,30.39,ENE,74,0.0,2.0,59,0.00,,,0.00,weatherlink.com 1.10,2013-05-01 10:48:00,
2013-05-01 07:03:00,46.5,32.0,30.40,ENE,69,1.0,3.0,58,0.00,,,0.00,weatherlink.com 1.10,2013-05-01 11:03:00,
2013-05-01 07:18:00,47.7,32.0,30.40,ENE,67,3.0,4.0,55,0.00,,,0.00,weatherlink.com 1.10,2013-05-01 11:18:00,
2013-05-01 07:34:00,48.7,32.0,30.41,ENE,67,0.0,7.0,53,0.00,,,0.00,weatherlink.com 1.10,2013-05-01 11:34:00,
2013-05-01 07:49:00,50.0,32.0,30.41,ENE,65,3.0,5.0,50,0.00,,,0.00,weatherlink.com 1.10,2013-05-01 11:49:00,
2013-05-01 08:04:00,50.5,32.0,30.42,ENE,67,0.0,7.0,50,0.00,,,0.00,weatherlink.com 1.10,2013-05-01 12:04:00,
2013-05-01 08:19:00,51.5,32.0,30.42,ENE,69,3.0,8.0,48,0.00,,,0.00,weatherlink.com 1.10,2013-05-01 12:19:00,
2013-05-01 08:34:00,53.4,33.0,30.43,ENE,71,0.0,7.0,46,0.00,,,0.00,weatherlink.com 1.10,2013-05-01 12:34:00,
2013-05-01 08:49:00,54.5,32.0,30.43,SE,146,3.0,6.0,42,0.00,,,0.00,weatherlink.com 1.10,2013-05-01 12:49:00,
2013-05-01 09:04:00,54.7,32.0,30.43,East,80,6.0,7.0,42,0.00,,,0.00,weatherlink.com 1.10,2013-05-01 13:04:00,
2013-05-01 09:19:00,55.2,32.0,30.43,NE,51,4.0,7.0,42,0.00,,,0.00,weatherlink.com 1.10,2013-05-01 13:19:00,
2013-05-01 09:34:00,56.7,34.0,30.43,SE,134,0.0,8.0,42,0.00,,,0.00,weatherlink.com 1.10,2013-05-01 13:34:00,
2013-05-01 09:49:00,58.1,35.0,30.43,ENE,71,2.0,6.0,42,0.00,,,0.00,weatherlink.com 1.10,2013-05-01 13:49:00,
2013-05-01 10:04:00,58.5,35.0,30.43,ENE,71,4.0,8.0,41,0.00,,,0.00,weatherlink.com 1.10,2013-05-01 14:04:00,
2013-05-01 10:19:00,59.8,35.0,30.43,WNW,288,1.0,5.0,40,0.00,,,0.00,weatherlink.com 1.10,2013-05-01 14:19:00,
2013-05-01 10:34:00,60.3,36.0,30.43,NNW,338,0.0,9.0,41,0.00,,,0.00,weatherlink.com 1.10,2013-05-01 14:34:00,
2013-05-01 10:49:00,61.3,35.0,30.43,WSW,248,1.0,11.0,38,0.00,,,0.00,weatherlink.com 1.10,2013-05-01 14:49:00,
2013-05-01 11:04:00,62.1,37.0,30.43,NNW,331,0.0,11.0,39,0.00,,,0.00,weatherlink.com 1.10,2013-05-01 15:04:00,
2013-05-01 11:20:00,62.8,35.0,30.43,NW,307,3.0,7.0,36,0.00,,,0.00,weatherlink.com 1.10,2013-05-01 15:20:00,
2013-05-01 11:35:00,63.7,34.0,30.43,SE,127,0.0,6.0,33,0.00,,,0.00,weatherlink.com 1.10,2013-05-01 15:35:00,
2013-05-01 11:50:00,64.1,33.0,30.43,WNW,295,2.0,9.0,32,0.00,,,0.00,weatherlink.com 1.10,2013-05-01 15:50:00,
2013-05-01 12:05:00,65.5,36.0,30.43,WSW,239,2.0,7.0,33,0.00,,,0.00,weatherlink.com 1.10,2013-05-01 16:05:00,
2013-05-01 12:20:00,65.7,35.0,30.43,NE,49,1.0,9.0,32,0.00,,,0.00,weatherlink.com 1.10,2013-05-01 16:20:00,
2013-05-01 12:35:00,66.4,32.0,30.42,South,172,6.0,7.0,28,0.00,,,0.00,weatherlink.com 1.10,2013-05-01 16:35:00,
2013-05-01 12:50:00,67.1,33.0,30.42,ENE,71,1.0,7.0,28,0.00,,,0.00,weatherlink.com 1.10,2013-05-01 16:50:00,
2013-05-01 13:05:00,66.3,32.0,30.41,SE,126,0.0,8.0,28,0.00,,,0.00,weatherlink.com 1.10,2013-05-01 17:05:00,
2013-05-01 13:20:00,68.4,32.0,30.41,East,90,1.0,7.0,26,0.00,,,0.00,weatherlink.com 1.10,2013-05-01 17:20:00,
2013-05-01 13:35:00,68.7,33.0,30.41,South,190,3.0,8.0,27,0.00,,,0.00,weatherlink.com 1.10,2013-05-01 17:35:00,
2013-05-01 13:50:00,67.5,32.0,30.41,ENE,78,2.0,10.0,27,0.00,,,0.00,weatherlink.com 1.10,2013-05-01 17:50:00,
2013-05-01 14:05:00,69.9,33.0,30.40,East,98,0.0,7.0,26,0.00,,,0.00,weatherlink.com 1.10,2013-05-01 18:05:00,
2013-05-01 14:20:00,70.1,33.0,30.41,ENE,61,1.0,9.0,25,0.00,,,0.00,weatherlink.com 1.10,2013-05-01 18:20:00,
2013-05-01 14:35:00,70.0,33.0,30.40,ENE,72,4.0,9.0,25,0.00,,,0.00,weatherlink.com 1.10,2013-05-01 18:35:00,
2013-05-01 14:50:00,71.1,33.0,30.40,ENE,75,2.0,7.0,25,0.00,,,0.00,weatherlink.com 1.10,2013-05-01 18:50:00,
2013-05-01 15:05:00,69.0,32.0,30.40,NE,38,4.0,11.0,25,0.00,,,0.00,weatherlink.com 1.10,2013-05-01 19:05:00,
2013-05-01 15:20:00,68.9,33.0,30.39,ENE,57,5.0,13.0,26,0.00,,,0.00,weatherlink.com 1.10,2013-05-01 19:20:00,
2013-05-01 15:35:00,71.7,36.0,30.39,SSE,162,0.0,7.0,27,0.00,,,0.00,weatherlink.com 1.10,2013-05-01 19:35:00,
2013-05-01 15:50:00,71.1,35.0,30.39,South,181,1.0,7.0,27,0.00,,,0.00,weatherlink.com 1.10,2013-05-01 19:50:00,
2013-05-01 16:05:00,71.2,34.0,30.39,SSE,147,1.0,7.0,26,0.00,,,0.00,weatherlink.com 1.10,2013-05-01 20:05:00,
2013-05-01 16:20:00,72.8,38.0,30.39,East,83,1.0,5.0,28,0.00,,,0.00,weatherlink.com 1.10,2013-05-01 20:20:00,
2013-05-01 16:35:00,72.0,38.0,30.39,ESE,111,0.0,5.0,29,0.00,,,0.00,weatherlink.com 1.10,2013-05-01 20:35:00,
2013-05-01 16:50:00,72.6,38.0,30.39,West,263,1.0,6.0,28,0.00,,,0.00,weatherlink.com 1.10,2013-05-01 20:50:00,
2013-05-01 17:05:00,71.2,35.0,30.39,SW,225,1.0,6.0,27,0.00,,,0.00,weatherlink.com 1.10,2013-05-01 21:05:00,
2013-05-01 17:20:00,72.1,36.0,30.40,SW,233,0.0,4.0,27,0.00,,,0.00,weatherlink.com 1.10,2013-05-01 21:20:00,
2013-05-01 17:35:00,71.6,36.0,30.40,WSW,248,2.0,7.0,27,0.00,,,0.00,weatherlink.com 1.10,2013-05-01 21:35:00,
2013-05-01 17:51:00,70.6,35.0,30.40,East,98,0.0,9.0,27,0.00,,,0.00,weatherlink.com 1.10,2013-05-01 21:51:00,
2013-05-01 18:05:00,70.2,35.0,30.40,West,270,1.0,4.0,27,0.00,,,0.00,weatherlink.com 1.10,2013-05-01 22:05:00,
2013-05-01 18:20:00,69.9,34.0,30.40,South,182,3.0,7.0,27,0.00,,,0.00,weatherlink.com 1.10,2013-05-01 22:20:00,
2013-05-01 18:35:00,69.0,34.0,30.40,South,188,0.0,4.0,27,0.00,,,0.00,weatherlink.com 1.10,2013-05-01 22:35:00,
2013-05-01 18:50:00,68.9,34.0,30.41,SE,140,0.0,2.0,28,0.00,,,0.00,weatherlink.com 1.10,2013-05-01 22:50:00,
2013-05-01 19:05:00,68.5,34.0,30.41,ESE,109,0.0,3.0,28,0.00,,,0.00,weatherlink.com 1.10,2013-05-01 23:05:00,
2013-05-01 19:20:00,67.0,34.0,30.41,SW,234,0.0,6.0,30,0.00,,,0.00,weatherlink.com 1.10,2013-05-01 23:20:00,
2013-05-01 19:35:00,65.0,36.0,30.41,NW,314,0.0,2.0,34,0.00,,,0.00,weatherlink.com 1.10,2013-05-01 23:35:00,
2013-05-01 19:50:00,63.9,38.0,30.41,NE,45,1.0,4.0,39,0.00,,,0.00,weatherlink.com 1.10,2013-05-01 23:50:00,
2013-05-01 20:05:00,62.4,41.0,30.42,SW,217,1.0,5.0,45,0.00,,,0.00,weatherlink.com 1.10,2013-05-02 00:05:00,
2013-05-01 20:20:00,61.9,41.0,30.42,East,90,0.0,5.0,47,0.00,,,0.00,weatherlink.com 1.10,2013-05-02 00:20:00,
2013-05-01 20:35:00,61.1,42.0,30.43,ENE,69,0.0,8.0,49,0.00,,,0.00,weatherlink.com 1.10,2013-05-02 00:35:00,
2013-05-01 20:50:00,60.3,42.0,30.44,East,95,0.0,6.0,52,0.00,,,0.00,weatherlink.com 1.10,2013-05-02 00:50:00,
2013-05-01 21:05:00,59.6,42.0,30.44,East,84,1.0,10.0,52,0.00,,,0.00,weatherlink.com 1.10,2013-05-02 01:05:00,
2013-05-01 21:20:00,58.8,41.0,30.45,ENE,67,0.0,4.0,53,0.00,,,0.00,weatherlink.com 1.10,2013-05-02 01:20:00,
2013-05-01 21:35:00,58.0,42.0,30.46,SSE,165,0.0,1.0,56,0.00,,,0.00,weatherlink.com 1.10,2013-05-02 01:35:00,
2013-05-01 21:50:00,57.1,42.0,30.46,SW,219,0.0,1.0,57,0.00,,,0.00,weatherlink.com 1.10,2013-05-02 01:50:00,
2013-05-01 22:05:00,56.8,41.0,30.46,SE,137,0.0,3.0,56,0.00,,,0.00,weatherlink.com 1.10,2013-05-02 02:05:00,
2013-05-01 22:21:00,56.4,41.0,30.46,ENE,74,0.0,3.0,57,0.00,,,0.00,weatherlink.com 1.10,2013-05-02 02:21:00,
2013-05-01 22:35:00,55.8,41.0,30.46,East,99,0.0,2.0,57,0.00,,,0.00,weatherlink.com 1.10,2013-05-02 02:35:00,
2013-05-01 22:50:00,54.9,41.0,30.46,East,91,1.0,2.0,59,0.00,,,0.00,weatherlink.com 1.10,2013-05-02 02:50:00,
2013-05-01 23:06:00,54.3,41.0,30.46,East,89,0.0,2.0,61,0.00,,,0.00,weatherlink.com 1.10,2013-05-02 03:06:00,
2013-05-01 23:21:00,54.0,41.0,30.45,East,101,0.0,1.0,62,0.00,,,0.00,weatherlink.com 1.10,2013-05-02 03:21:00,
2013-05-01 23:36:00,52.9,41.0,30.45,ESE,121,0.0,0.0,64,0.00,,,0.00,weatherlink.com 1.10,2013-05-02 03:36:00,
2013-05-01 23:51:00,51.5,40.0,30.45,ESE,109,0.0,1.0,66,0.00,,,0.00,weatherlink.com 1.10,2013-05-02 03:51:00,